Date String (YYYY-MM-DD hh:mm:ss) UTC,Instrument flags,absolute air pressure of the measurement (hPa),sample flow rate (lpm),inlet stack bypass flow (lpm),air temperature of the measurement (°C),ambient temperature measured by the external sensor (°C),aerosol sample conditioner tube jacket temperature (°C),OPC LED temperature (°C),internal box temperature (°C),relative humidity of the measurement (%),span deviation,mass concentration of particles derived from Lorenz-Mie calculation of OPC scattering (μg/m³),mass concentration of particles derived from Lorenz-Mie calculation of OPC scattering (μg/m³),mass concentration of particles derived from Lorenz-Mie calculation of OPC scattering (μg/m³)
DateTimeUTC,F1_M11,P_M11,Q1_M11,Q2_M11,T1_M11,T2_M11,T3_M11,T4_M11,T5_M11,U1_M11,ZSPAN_M11,X0_M11,X2_M11,X1_M11
2024-03-09 07:00:00,SystemResetWarning,0833.8,4.99,000.00,018.4,016.9,000.0,027.3,020.0,16.1,0000.0,0006.22,0004.59,0004.50
2024-03-09 07:01:00,SystemResetWarning,0833.7,4.99,000.00,018.4,017.1,000.0,027.3,020.1,16.1,0000.0,0006.19,0004.58,0004.50
2024-03-09 07:02:00,SystemResetWarning,0833.8,5.01,000.00,018.5,018.0,000.0,027.3,020.6,15.9,0000.0,0006.17,0004.57,0004.49
2024-03-09 07:03:00,SystemResetWarning,0833.8,5.00,000.00,018.8,019.1,000.0,027.4,021.1,15.7,0000.0,0006.18,0004.56,0004.47
2024-03-09 07:04:00,SystemResetWarning,0833.7,4.98,000.00,019.0,019.3,000.0,027.4,021.2,15.5,0000.0,0006.23,0004.56,0004.46
2024-03-09 07:05:00,SystemResetWarning,0833.7,5.01,000.00,018.9,019.0,000.0,027.3,020.9,15.4,0000.0,0006.13,0004.53,0004.44
2024-03-09 07:06:00,SystemResetWarning,0833.7,5.00,000.00,018.9,018.6,000.0,027.3,020.6,15.5,0000.0,0005.94,0004.49,0004.42
2024-03-09 07:07:00,SystemResetWarning,0833.7,5.00,000.00,018.8,018.2,000.0,027.3,020.4,15.6,0000.0,0005.82,0004.46,0004.39
2024-03-09 07:08:00,SystemResetWarning,0833.6,4.99,000.00,018.7,017.8,000.0,027.2,020.2,15.7,0000.0,0005.84,0004.46,0004.38
2024-03-09 07:09:00,SystemResetWarning,0833.7,5.00,000.00,018.6,017.5,000.0,027.2,020.0,15.8,0000.0,0005.81,0004.44,0004.35
2024-03-09 07:10:00,SystemResetWarning,0833.7,5.01,000.00,018.5,017.3,000.0,027.3,020.0,15.8,0000.0,0005.81,0004.43,0004.34
2024-03-09 07:11:00,SystemResetWarning,0833.7,4.98,000.00,018.5,017.1,000.0,027.3,020.0,15.9,0000.0,0005.83,0004.43,0004.33
2024-03-09 07:12:00,SystemResetWarning,0833.7,5.00,000.00,018.4,017.0,000.0,027.3,020.0,15.9,0000.0,0005.80,0004.42,0004.32
2024-03-09 07:13:00,SystemResetWarning,0833.7,5.01,000.00,018.4,016.9,000.0,027.3,020.0,16.0,0000.0,0005.87,0004.44,0004.32
2024-03-09 07:14:00,SystemResetWarning,0833.7,5.01,000.00,018.5,017.7,000.0,027.3,020.4,16.0,0000.0,0005.87,0004.45,0004.34
2024-03-09 07:15:00,SystemResetWarning,0833.7,4.98,000.00,018.7,018.8,000.0,027.4,020.9,15.8,0000.0,0005.96,0004.49,0004.37
2024-03-09 07:16:00,SystemResetWarning,0833.7,5.00,000.00,018.9,019.2,000.0,027.4,021.2,15.5,0000.0,0006.07,0004.55,0004.43
2024-03-09 07:17:00,SystemResetWarning,0833.7,5.00,000.00,018.9,018.9,000.0,027.3,020.9,15.5,0000.0,0006.16,0004.59,0004.47
2024-03-09 07:18:00,SystemResetWarning,0833.7,5.00,000.00,018.8,018.5,000.0,027.3,020.6,15.5,0000.0,0006.17,0004.61,0004.49
2024-03-09 07:19:00,SystemResetWarning,0833.6,5.01,000.00,018.7,018.1,000.0,027.3,020.3,15.6,0000.0,0006.24,0004.63,0004.51
2024-03-09 07:20:00,SystemResetWarning,0833.6,5.00,000.00,018.6,017.8,000.0,027.2,020.1,15.7,0000.0,0006.25,0004.65,0004.53
2024-03-09 07:21:00,SystemResetWarning,0833.7,4.99,000.00,018.5,017.4,000.0,027.2,020.0,16.0,0000.0,0006.27,0004.67,0004.55
2024-03-09 07:22:00,SystemResetWarning,0833.6,4.99,000.00,018.5,017.2,000.0,027.3,020.0,16.3,0000.0,0006.31,0004.67,0004.55
2024-03-09 07:23:00,SystemResetWarning,0833.6,5.00,000.00,018.4,017.0,000.0,027.3,020.0,16.4,0000.0,0006.35,0004.68,0004.55
2024-03-09 07:24:00,SystemResetWarning,0833.6,5.01,000.00,018.4,016.9,000.0,027.3,020.0,16.6,0000.0,0006.34,0004.67,0004.54
2024-03-09 07:25:00,SystemResetWarning,0833.6,5.01,000.00,018.4,017.5,000.0,027.3,020.3,16.7,0000.0,0006.32,0004.67,0004.53
2024-03-09 07:26:00,SystemResetWarning,0833.6,4.99,000.00,018.7,018.6,000.0,027.4,020.9,16.4,0000.0,0006.21,0004.63,0004.51
2024-03-09 07:27:00,SystemResetWarning,0833.6,4.99,000.00,018.9,019.3,000.0,027.4,021.2,16.2,0000.0,0006.07,0004.57,0004.45
2024-03-09 07:28:00,SystemResetWarning,0833.6,5.00,000.00,018.9,019.1,000.0,027.4,021.0,16.3,0000.0,0006.04,0004.54,0004.41
2024-03-09 07:29:00,SystemResetWarning,0833.5,5.01,000.00,018.9,018.7,000.0,027.3,020.7,16.4,0000.0,0005.99,0004.51,0004.38
2024-03-09 07:30:00,SystemResetWarning,0833.5,5.00,000.00,018.8,018.2,000.0,027.3,020.4,16.5,0000.0,0005.88,0004.47,0004.35
2024-03-09 07:31:00,SystemResetWarning,0833.5,5.00,000.00,018.7,017.8,000.0,027.3,020.2,16.5,0000.0,0005.78,0004.44,0004.33
2024-03-09 07:32:00,SystemResetWarning,0833.5,5.01,000.00,018.6,017.5,000.0,027.2,020.0,16.4,0000.0,0005.73,0004.42,0004.31
2024-03-09 07:33:00,SystemResetWarning,0833.5,5.01,000.00,018.5,017.3,000.0,027.3,020.0,16.5,0000.0,0005.69,0004.41,0004.31
2024-03-09 07:34:00,SystemResetWarning,0833.5,5.00,000.00,018.5,017.1,000.0,027.3,020.0,16.5,0000.0,0005.65,0004.39,0004.30
2024-03-09 07:35:00,SystemResetWarning,0833.5,5.00,000.00,018.4,016.9,000.0,027.3,020.0,16.6,0000.0,0005.57,0004.36,0004.29
2024-03-09 07:36:00,SystemResetWarning,0833.4,5.00,000.00,018.4,017.3,000.0,027.3,020.2,16.5,0000.0,0005.50,0004.33,0004.26
2024-03-09 07:37:00,SystemResetWarning,0833.5,5.00,000.00,018.6,018.4,000.0,027.4,020.8,16.1,0000.0,0005.44,0004.31,0004.24
2024-03-09 07:38:00,SystemResetWarning,0833.6,4.99,000.00,018.9,019.2,000.0,027.4,021.2,15.6,0000.0,0005.41,0004.30,0004.24
2024-03-09 07:39:00,SystemResetWarning,0833.5,4.99,000.00,019.0,019.1,000.0,027.4,021.0,15.4,0000.0,0005.43,0004.31,0004.26
2024-03-09 07:40:00,SystemResetWarning,0833.4,5.01,000.00,018.9,018.7,000.0,027.3,020.7,15.3,0000.0,0005.51,0004.35,0004.29
2024-03-09 07:41:00,SystemResetWarning,0833.4,5.00,000.00,018.8,018.3,000.0,027.3,020.4,15.2,0000.0,0005.51,0004.37,0004.31
2024-03-09 07:42:00,SystemResetWarning,0833.4,5.00,000.00,018.7,018.0,000.0,027.3,020.2,15.2,0000.0,0005.52,0004.39,0004.34
2024-03-09 07:43:00,SystemResetWarning,0833.4,4.99,000.00,018.6,017.6,000.0,027.2,020.1,15.3,0000.0,0005.55,0004.42,0004.36
2024-03-09 07:44:00,SystemResetWarning,0833.4,5.00,000.00,018.5,017.4,000.0,027.3,020.0,15.3,0000.0,0005.54,0004.43,0004.38
2024-03-09 07:45:00,SystemResetWarning,0833.4,5.00,000.00,018.5,017.1,000.0,027.3,020.0,15.3,0000.0,0005.61,0004.46,0004.41
2024-03-09 07:46:00,SystemResetWarning,0833.5,5.00,000.00,018.4,017.0,000.0,027.3,020.0,15.2,0000.0,0005.76,0004.51,0004.45
2024-03-09 07:47:00,SystemResetWarning,0833.4,5.01,000.00,018.4,017.2,000.0,027.3,020.1,15.2,0000.0,0005.88,0004.57,0004.50
2024-03-09 07:48:00,SystemResetWarning,0833.5,4.99,000.00,018.6,018.2,000.0,027.4,020.6,15.1,0000.0,0005.96,0004.61,0004.53
2024-03-09 07:49:00,SystemResetWarning,0833.5,4.99,000.00,018.8,019.1,000.0,027.4,021.1,14.9,0000.0,0006.00,0004.63,0004.55
2024-03-09 07:50:00,SystemResetWarning,0833.4,5.00,000.00,018.9,019.2,000.0,027.4,021.1,14.7,0000.0,0006.00,0004.63,0004.54
2024-03-09 07:51:00,SystemResetWarning,0833.4,4.99,000.00,018.9,018.8,000.0,027.3,020.8,14.7,0000.0,0005.87,0004.59,0004.51
2024-03-09 07:52:00,SystemResetWarning,0833.4,5.00,000.00,018.8,018.4,000.0,027.3,020.5,14.7,0000.0,0005.83,0004.57,0004.49
2024-03-09 07:53:00,SystemResetWarning,0833.4,5.00,000.00,018.7,018.0,000.0,027.3,020.2,14.8,0000.0,0005.82,0004.55,0004.48
2024-03-09 07:54:00,SystemResetWarning,0833.4,5.00,000.00,018.6,017.7,000.0,027.2,020.0,14.9,0000.0,0005.76,0004.52,0004.44
2024-03-09 07:55:00,SystemResetWarning,0833.4,5.00,000.00,018.5,017.4,000.0,027.3,020.0,15.0,0000.0,0005.75,0004.49,0004.40
2024-03-09 07:56:00,SystemResetWarning,0833.4,4.99,000.00,018.5,017.2,000.0,027.3,020.0,15.0,0000.0,0005.70,0004.45,0004.35
2024-03-09 07:57:00,SystemResetWarning,0833.3,5.01,000.00,018.4,017.0,000.0,027.3,020.0,15.0,0000.0,0005.54,0004.38,0004.28
2024-03-09 07:58:00,SystemResetWarning,0833.3,5.02,000.00,018.5,017.5,000.0,027.3,020.3,15.0,0000.0,0005.37,0004.31,0004.22
2024-03-09 07:59:00,SystemResetWarning,0833.4,5.00,000.00,018.7,018.6,000.0,027.4,020.8,14.8,0000.0,0005.32,0004.25,0004.16
